Weather History for Szeged, Hungary

Change the Weather History Date:

Friday, December 21, 2012

  Actual Average (LRAR) Record (LRAR)
Temperature  
Mean Temperature 26 °F -  
Max Temperature 28 °F 36 °F 51 °F (1997)
Min Temperature 23 °F 24 °F 12 °F (2000)
Degree Days  
Heating Degree Days 40    
Moisture  
Dew Point 28 °F    
Average Humidity 99    
Maximum Humidity 100    
Minimum Humidity 93    
Precipitation  
Precipitation 0.00 in 0.04 in - ()
Sea Level Pressure  
Sea Level Pressure 30.03 in    
Wind  
Wind Speed 4 mph ()    
Max Wind Speed 7 mph    
Max Gust Speed -    
Visibility 1.0 miles    
Events Fog    
Averages and records for this station are not official NWS values.
T = Trace of Precipitation, MM = Missing Value Source: Averaged Metar Reports

Daily Weather History Graph

Daily Weather History Graph

Search for Another Location

Airport:

Trip Planner

Search our weather history database for the weather conditions in past years. The results will help you decide how hot, cold, wet, or windy it might be!

Date:

Astronomy

Dec. 21, 2012 Rise Set
Actual Time 7:19 AM CET 3:56 PM CET
Civil Twilight 6:44 AM CET 4:31 PM CET
Nautical Twilight 6:06 AM CET 5:09 PM CET
Astronomical Twilight 5:29 AM CET 5:45 PM CET
Moon 11:48 AM CET (12/21) 12:32 AM CET (12/21)
Length of Visible Light 9h 46m
Length of Day
8h 36m
Waxing Gibbous, 62% of the Moon is Illuminated
Dec 21
Waxing Gibbous
Dec 28
Full
Jan 5
Last Quarter
Jan 11
New
Jan 19
First Quarter

Hourly Weather History & Observations

Time (CET) Temp. Windchill Dew Point Humidity Pressure Visibility Wind Dir Wind Speed Gust Speed Precip Events Conditions
12:15 AM 28.4 °F 23.3 °F 28.4 °F 100% 30.06 in 0.1 mi WNW 4.6 mph - N/A Fog Light Freezing Fog
12:45 AM 28.4 °F 23.3 °F 28.4 °F 100% 30.04 in 0.1 mi NW 4.6 mph - N/A Fog Light Freezing Fog
1:00 AM 29 °F - 29 °F 99% 30.06 in 0 mi NW 4.5 mph - - Fog Heavy Fog
1:45 AM 28.4 °F 21.2 °F 28.4 °F 100% 30.04 in 0.1 mi NW 6.9 mph - N/A Fog Light Freezing Fog
2:45 AM 28.4 °F 23.3 °F 28.4 °F 100% 30.04 in 0.3 mi WNW 4.6 mph - N/A Fog Light Freezing Fog
3:45 AM 28.4 °F 24.6 °F 28.4 °F 100% 30.04 in 0.3 mi NNE 3.5 mph - N/A Fog Light Freezing Fog
4:45 AM 28.4 °F - 26.6 °F 93% 30.04 in 0.1 mi NE 2.3 mph - N/A Fog Light Freezing Fog
5:15 AM 28.4 °F - 28.4 °F 100% 30.04 in 0.1 mi NNE 2.3 mph - N/A Fog Light Freezing Fog
5:45 AM 28.4 °F - 26.6 °F 93% 30.01 in 0.5 mi South 1.2 mph - N/A Fog Light Freezing Fog
6:15 AM 28.4 °F - 28.4 °F 100% 30.01 in 0.5 mi Calm Calm - N/A Fog Light Freezing Fog
6:45 AM 28.4 °F 24.6 °F 28.4 °F 100% 30.01 in 0.9 mi SSE 3.5 mph - N/A   Overcast
7:00 AM 28 °F - 28 °F 98% 30.03 in 1 mi SSE 2.2 mph - - Fog Light Fog
7:15 AM 28.4 °F 23.3 °F 28.4 °F 100% 30.01 in 0.7 mi SSE 4.6 mph - N/A   Overcast
7:45 AM 28.4 °F 24.6 °F 28.4 °F 100% 30.01 in 0.7 mi SSW 3.5 mph - N/A   Overcast
8:15 AM 28.4 °F - 28.4 °F 100% 30.01 in 0.9 mi ESE 2.3 mph - N/A   Overcast
8:45 AM 28.4 °F 24.6 °F 26.6 °F 93% 30.01 in 0.9 mi SSW 3.5 mph - N/A   Overcast
9:15 AM 28.4 °F 24.6 °F 28.4 °F 100% 30.01 in 1.2 mi SSW 3.5 mph - N/A   Overcast
9:45 AM 28.4 °F 24.6 °F 28.4 °F 100% 30.04 in 1.6 mi SSE 3.5 mph - N/A   Overcast
10:15 AM 28.4 °F 24.6 °F 28.4 °F 100% 30.04 in 2.2 mi SE 3.5 mph - N/A   Overcast
10:45 AM 28.4 °F 24.6 °F 28.4 °F 100% 30.04 in 2.2 mi SE 3.5 mph - N/A   Overcast
11:15 AM 28.4 °F - 26.6 °F 93% 30.01 in 2.2 mi ESE 2.3 mph - N/A   Overcast
11:45 AM 26.6 °F - 26.6 °F 100% 30.01 in 2.2 mi WSW 1.2 mph - N/A   Overcast
12:15 PM 28.4 °F - 28.4 °F 100% 30.01 in 2.5 mi West 1.2 mph - N/A   Overcast
12:45 PM 28.4 °F 23.3 °F 28.4 °F 100% 30.01 in 2.5 mi North 4.6 mph - N/A   Mostly Cloudy
1:00 PM 28 °F - 28 °F 99% 30.01 in 2 mi North 4.5 mph - -   Mist
1:15 PM 28.4 °F 23.3 °F 28.4 °F 100% 30.01 in 2.5 mi NNW 4.6 mph - N/A   Mostly Cloudy
1:45 PM 28.4 °F 22.2 °F 28.4 °F 100% 30.01 in 1.9 mi North 5.8 mph - N/A   Overcast
2:15 PM 28.4 °F 22.2 °F 28.4 °F 100% 30.01 in 1.6 mi North 5.8 mph - N/A   Overcast
2:45 PM 28.4 °F 23.3 °F 28.4 °F 100% 30.01 in 1.6 mi North 4.6 mph - N/A   Overcast
3:15 PM 28.4 °F 22.2 °F 28.4 °F 100% 30.01 in 1.2 mi North 5.8 mph - N/A   Overcast
3:45 PM 28.4 °F 21.2 °F 28.4 °F 100% 30.01 in 1.2 mi North 6.9 mph - N/A   Overcast
4:15 PM 28.4 °F 22.2 °F 26.6 °F 93% 30.01 in 1.1 mi North 5.8 mph - N/A   Overcast
4:45 PM 26.6 °F 19.1 °F 26.6 °F 100% 30.04 in 0.7 mi NNW 6.9 mph - N/A   Overcast
5:15 PM 26.6 °F 20.0 °F 26.6 °F 100% 30.04 in 0.7 mi NNW 5.8 mph - N/A   Overcast
5:45 PM 26.6 °F 20.0 °F 26.6 °F 100% 30.04 in 0.5 mi North 5.8 mph - N/A Fog Light Freezing Fog
6:15 PM 26.6 °F 20.0 °F 26.6 °F 100% 30.04 in 0.5 mi North 5.8 mph - N/A Fog Light Freezing Fog
6:45 PM 26.6 °F 20.0 °F 26.6 °F 100% 30.04 in 0.7 mi North 5.8 mph - N/A   Overcast
7:00 PM 27 °F - 27 °F 98% 30.06 in 1 mi North 6.7 mph - - Fog Light Fog
7:15 PM 26.6 °F 20.0 °F 26.6 °F 100% 30.04 in 0.7 mi North 5.8 mph - N/A   Overcast
7:45 PM 26.6 °F 20.0 °F 26.6 °F 100% 30.06 in 0.7 mi NNW 5.8 mph - N/A   Overcast
8:15 PM 26.6 °F 21.2 °F 24.8 °F 93% 30.06 in 0.7 mi NNW 4.6 mph - N/A   Overcast
8:45 PM 26.6 °F 21.2 °F 24.8 °F 93% 30.06 in 0.7 mi North 4.6 mph - N/A   Overcast
9:45 PM 24.8 °F 17.9 °F 24.8 °F 100% 30.09 in 0.7 mi NE 5.8 mph - N/A   Overcast
10:45 PM 24.8 °F 17.9 °F 24.8 °F 100% 30.09 in 0.7 mi North 5.8 mph - N/A   Overcast